Location: *
(51.1248°S, 108.4023°W)
Time: 05:06:22
(UTC+00:00)

YAOGAN 1 - Visible Passes

Search period start: 26 October 2021 00:00
Search period end: 05 November 2021 00:00
Orbit: 618 x 620 km, 97.9° (Epoch: 25 October)

Date Brightness Start Highest point End Pass type
(mag) Time Alt. Az. Time Alt. Az. Time Alt. Az.
26 Oct 2.8 02:41:32 10° SSE 02:45:50 49° E 02:50:05 10° N visible
26 Oct 5.0 04:18:09 10° S 04:21:40 24° WSW 04:25:11 10° WNW visible
27 Oct 2.6 02:58:27 10° SSE 03:02:53 71° ENE 03:07:15 10° N visible
27 Oct 5.5 04:35:32 10° SSW 04:38:30 18° WSW 04:41:26 10° W visible
28 Oct 2.7 03:15:28 10° SSE 03:19:54 81° WSW 03:24:17 10° NNW visible
28 Oct 5.7 04:53:11 10° SSW 04:55:17 13° SW 04:57:23 10° W visible
29 Oct 3.3 03:32:32 10° S 03:36:52 57° WSW 03:41:10 10° NNW visible
30 Oct 4.1 03:49:40 10° S 03:53:48 40° WSW 03:57:54 10° NW visible
31 Oct 4.7 04:06:52 10° S 04:10:41 29° WSW 04:14:28 10° WNW visible
01 Nov 5.2 04:24:11 10° S 04:27:32 22° WSW 04:30:53 10° WNW visible
02 Nov 2.6 03:04:23 10° SSE 03:08:49 80° ENE 03:13:12 10° NNW visible
02 Nov 5.5 04:41:39 10° SSW 04:44:21 16° WSW 04:47:03 10° W visible
03 Nov 2.9 03:21:24 10° S 03:25:49 72° WSW 03:30:10 10° NNW visible
03 Nov 5.8 04:59:26 10° SSW 05:01:07 12° SW 05:02:48 10° WSW visible
04 Nov 3.6 03:38:29 10° S 03:42:46 50° WSW 03:47:00 10° NW visible
